Home   Weather   Hereford   Past weeks

Flag for USA Past Weather in Hereford, Texas, USA — Yesterday and Last 2 Weeks

52 °F


Feels Like: 49 °F
Forecast: 46 / 79 °F
Wind: 9 mph from North

Location: Clovis Municipal

Current Time: Oct 24, 2016 at 3:49:45 AM

Latest Report: Oct 24, 2016 at 3:35 AM

Visibility: 10 mi

Pressure: 30.24 "Hg (26.28 "Hg at 1167m altitude)

Humidity: 54%

Dew Point: 36 °F

Location of HerefordLocation

Past Weather in Hereford — Graph


Hereford Temperature Yesterday

Maximum temperature yesterday: 84 °F (at 3:15 PM)
Minimum temperature yesterday: 48 °F (at 2:55 AM)
Average temperature yesterday: 63 °F

High & Low Weather Summary for the Past Weeks

High91 °F (Oct 16, 4:15 PM)94% (Oct 9, 9:15 AM)30.50 "Hg (Oct 9, 9:15 AM)
Low36 °F (Oct 21, 5:35 AM)10% (Oct 16, 4:35 PM)29.76 "Hg (Oct 17, 4:15 PM)
Average61 °F52%30.12 "Hg
* Reported Oct 9 2:15 AM — Oct 24 2:55 AM, Hereford, Weather by CustomWeather, © 2016

Note: Actual official high and low records may vary slightly from our data, if they occured in-between our weather recording intervals... More about our weather records


Hereford Weather History for the Previous 24 Hours

Scroll right to see more
Time TempWeatherWind HumidityBarometerVisibility
2:55 AM
Mon, Oct 24
50 °FClear.10 mph62%30.24 "Hg10 mi
2:35 AM50 °FClear.12 mph58%30.23 "Hg10 mi
2:15 AM50 °FClear.13 mph58%30.22 "Hg10 mi
1:55 AM50 °FClear.10 mph58%30.22 "Hg10 mi
1:35 AM50 °FClear.12 mph58%30.22 "Hg10 mi
1:15 AM50 °FClear.12 mph58%30.22 "Hg10 mi
12:55 AM50 °FClear.10 mph54%30.22 "Hg10 mi
12:35 AM52 °FClear.12 mph50%30.23 "Hg10 mi
12:15 AM52 °FClear.12 mph54%30.23 "Hg10 mi
11:55 PM
Sun, Oct 23
54 °FClear.8 mph47%30.23 "Hg8 mi
11:35 PM54 °FClear.10 mph47%30.22 "Hg8 mi
11:15 PM54 °FClear.10 mph47%30.22 "Hg8 mi
10:55 PM54 °FClear.9 mph47%30.22 "Hg7 mi
10:35 PM55 °FClear.12 mph44%30.21 "Hg10 mi
10:15 PM55 °FClear.12 mph41%30.21 "Hg10 mi
9:55 PM55 °FClear.10 mph38%30.21 "Hg10 mi
9:35 PM57 °FClear.12 mph39%30.20 "Hg8 mi
8:55 PM59 °FClear.12 mph34%30.18 "Hg10 mi
8:35 PM61 °FClear.12 mph31%30.18 "Hg7 mi
8:15 PM61 °FClear.12 mph31%30.17 "Hg10 mi
7:55 PM64 °FClear.12 mph28%30.16 "Hg10 mi
7:15 PM68 °FClear.12 mph24%30.14 "Hg10 mi
6:55 PM72 °FSunny.9 mph27%30.13 "Hg10 mi
6:35 PM79 °FSunny.8 mph16%30.12 "Hg10 mi
6:15 PM82 °FSunny.8 mph13%30.12 "Hg10 mi
5:55 PM82 °FSunny.8 mph13%30.12 "Hg10 mi
5:35 PM84 °FSunny.3 mph12%30.12 "Hg10 mi
5:15 PM84 °FSunny.No wind12%30.11 "Hg3 mi
4:55 PM82 °FSunny.5 mph13%30.11 "Hg10 mi
4:35 PM82 °FSunny.5 mph13%30.11 "Hg10 mi
4:15 PM82 °FSunny.No wind13%30.11 "Hg10 mi
3:55 PM82 °FSunny.No wind13%30.11 "Hg10 mi
3:15 PM84 °FSunny.6 mph12%30.11 "Hg10 mi
2:55 PM82 °FSunny.3 mph14%30.12 "Hg5 mi
2:35 PM82 °FSunny.3 mph14%30.12 "Hg10 mi
1:55 PM81 °FSunny.7 mph14%30.13 "Hg10 mi
1:35 PM81 °FSunny.9 mph15%30.14 "Hg10 mi
1:15 PM82 °FSunny.10 mph14%30.14 "Hg10 mi
12:55 PM82 °FSunny.13 mph14%30.15 "Hg10 mi
12:35 PM82 °FSunny.14 mph14%30.15 "Hg10 mi
11:55 AM79 °FSunny.14 mph20%30.14 "Hg10 mi
11:35 AM77 °FSunny.12 mph22%30.14 "Hg10 mi
11:15 AM73 °FSunny.14 mph27%30.14 "Hg10 mi
10:55 AM73 °FSunny.9 mph29%30.14 "Hg10 mi
10:35 AM72 °FSunny.13 mph31%30.13 "Hg10 mi
10:15 AM68 °FSunny.13 mph40%30.13 "Hg10 mi
9:55 AM63 °FSunny.10 mph45%30.13 "Hg10 mi
9:35 AM59 °FSunny.13 mph48%30.13 "Hg10 mi
9:15 AM55 °FSunny.10 mph55%30.12 "Hg10 mi
8:55 AM52 °FSunny.12 mph58%30.11 "Hg10 mi
8:35 AM50 °FSunny.12 mph62%30.11 "Hg10 mi
8:15 AM48 °FSunny.9 mph66%30.11 "Hg10 mi
7:55 AM48 °FClear.10 mph66%30.11 "Hg10 mi
7:35 AM48 °FClear.9 mph66%30.10 "Hg10 mi
7:15 AM50 °FClear.12 mph67%30.10 "Hg10 mi
6:55 AM52 °FClear.10 mph62%30.10 "Hg10 mi
6:35 AM52 °FClear.12 mph62%30.09 "Hg10 mi
6:15 AM52 °FClear.10 mph62%30.09 "Hg10 mi
5:55 AM52 °FClear.10 mph62%30.08 "Hg10 mi
5:35 AM54 °FClear.13 mph63%30.08 "Hg10 mi
5:15 AM55 °FClear.14 mph63%30.08 "Hg10 mi
4:55 AM54 °FClear.14 mph63%30.08 "Hg10 mi
4:35 AM54 °FClear.10 mph63%30.09 "Hg10 mi
4:15 AM52 °FClear.8 mph62%30.09 "Hg10 mi
3:55 AM54 °FClear.8 mph58%30.09 "Hg10 mi
3:35 AM52 °FClear.12 mph62%30.09 "Hg10 mi
3:15 AM48 °FClear.8 mph71%30.10 "Hg10 mi
Weather by CustomWeather, © 2016

See weather overviewHow to use our weather pages